| time (UTC) | temp F | wind direction | speed knots | gust knots | rain 1hr in | rain 24hr in | rain mn in | humidity % | barometer mb |
| 20260507005703 | 51 | 312 | 0.0 | 0.0 | 0.00 | 0.63 | 0.36 | 64 | 1014.0 |
| 20260507004703 | 51 | 312 | 0.0 | 1.7 | 0.00 | 0.64 | 0.36 | 63 | 1013.7 |
| 20260507002703 | 53 | 306 | 0.0 | 3.5 | 0.00 | 0.64 | 0.36 | 63 | 1013.4 |
| 20260507001703 | 54 | 298 | 0.9 | 3.5 | 0.00 | 0.64 | 0.36 | 62 | 1013.2 |
| 20260507000702 | 54 | 296 | 1.7 | 7.8 | 0.00 | 0.64 | 0.36 | 60 | 1013.3 |
| 20260506235703 | 55 | 230 | 2.6 | 9.6 | 0.00 | 0.64 | 0.36 | 61 | 1013.1 |
| 20260506234702 | 55 | 255 | 3.5 | 7.8 | 0.00 | 0.64 | 0.36 | 61 | 1013.1 |
| 20260506233703 | 55 | 3 | 0.9 | 5.2 | 0.00 | 0.64 | 0.36 | 60 | 1013.0 |
| 20260506232702 | 56 | 305 | 0.9 | 7.8 | 0.00 | 0.64 | 0.36 | 60 | 1012.9 |
| 20260506231703 | 56 | 231 | 2.6 | 11.3 | 0.00 | 0.64 | 0.36 | 59 | 1013.2 |
| 20260506230702 | 56 | 313 | 1.7 | 9.6 | 0.00 | 0.64 | 0.36 | 60 | 1013.2 |
| 20260506225703 | 56 | 261 | 1.7 | 5.2 | 0.00 | 0.64 | 0.36 | 60 | 1013.5 |
| 20260506224702 | 56 | 336 | 2.6 | 7.8 | 0.00 | 0.64 | 0.36 | 60 | 1013.5 |
| 20260506223702 | 56 | 262 | 1.7 | 9.6 | 0.00 | 0.64 | 0.36 | 61 | 1013.6 |
| 20260506222702 | 56 | 292 | 3.5 | 9.6 | 0.00 | 0.65 | 0.36 | 60 | 1013.7 |
| 20260506221704 | 57 | 326 | 2.6 | 9.6 | 0.00 | 0.66 | 0.36 | 61 | 1013.8 |
| 20260506220702 | 58 | 274 | 3.5 | 11.3 | 0.00 | 0.68 | 0.36 | 59 | 1013.5 |
| 20260506215702 | 58 | 66 | 4.3 | 9.6 | 0.00 | 0.72 | 0.36 | 61 | 1013.0 |
| 20260506213702 | 57 | 320 | 4.3 | 13.0 | 0.00 | 0.74 | 0.36 | 59 | 1012.9 |
| 20260506212702 | 57 | 333 | 2.6 | 9.6 | 0.00 | 0.74 | 0.36 | 62 | 1012.7 |
| 20260506211701 | 58 | 303 | 1.7 | 11.3 | 0.00 | 0.74 | 0.36 | 61 | 1012.7 |
| 20260506210702 | 58 | 295 | 2.6 | 13.0 | 0.00 | 0.74 | 0.36 | 61 | 1012.6 |
| 20260506205702 | 58 | 285 | 2.6 | 11.3 | 0.00 | 0.74 | 0.36 | 60 | 1012.4 |
| 20260506204703 | 59 | 320 | 3.5 | 9.6 | 0.00 | 0.74 | 0.36 | 58 | 1012.4 |
| 20260506203703 | 59 | 32 | 5.2 | 13.0 | 0.00 | 0.74 | 0.36 | 57 | 1012.4 |
| 20260506202703 | 60 | 282 | 5.2 | 11.3 | 0.00 | 0.74 | 0.36 | 55 | 1012.4 |
| 20260506200702 | 61 | 331 | 5.2 | 14.8 | 0.00 | 0.74 | 0.36 | 59 | 1012.2 |
| 20260506195703 | 61 | 274 | 7.0 | 13.0 | 0.00 | 0.74 | 0.36 | 58 | 1012.2 |
| 20260506194703 | 62 | 257 | 3.5 | 9.6 | 0.00 | 0.74 | 0.36 | 57 | 1012.3 |
| 20260506193703 | 61 | 62 | 3.5 | 14.8 | 0.00 | 0.74 | 0.36 | 56 | 1012.2 |
| 20260506192704 | 62 | 276 | 5.2 | 14.8 | 0.00 | 0.74 | 0.36 | 56 | 1012.2 |
| 20260506191704 | 61 | 248 | 7.8 | 11.3 | 0.00 | 0.74 | 0.36 | 60 | 1011.9 |
| 20260506190703 | 61 | 316 | 7.0 | 13.0 | 0.00 | 0.74 | 0.36 | 55 | 1011.9 |
| 20260506185702 | 61 | 258 | 4.3 | 14.8 | 0.00 | 0.74 | 0.36 | 57 | 1012.3 |
| 20260506184701 | 61 | 354 | 7.0 | 13.0 | 0.00 | 0.74 | 0.36 | 57 | 1012.2 |
| 20260506181702 | 61 | 169 | 2.6 | 9.6 | 0.00 | 0.74 | 0.36 | 57 | 1012.4 |
| 20260506180702 | 60 | 300 | 3.5 | 13.0 | 0.00 | 0.74 | 0.36 | 55 | 1012.3 |
| 20260506175702 | 60 | 121 | 3.5 | 11.3 | 0.00 | 0.74 | 0.36 | 55 | 1012.3 |
| 20260506174703 | 60 | 321 | 3.5 | 13.0 | 0.00 | 0.74 | 0.36 | 54 | 1012.3 |
| 20260506173703 | 59 | 13 | 5.2 | 20.0 | 0.00 | 0.74 | 0.36 | 55 | 1012.4 |
| 20260506172704 | 59 | 274 | 7.0 | 13.0 | 0.00 | 0.74 | 0.36 | 58 | 1012.5 |
| 20260506171703 | 59 | 8 | 4.3 | 13.0 | 0.00 | 0.74 | 0.36 | 60 | 1012.6 |
| 20260506170703 | 60 | 357 | 6.1 | 13.0 | 0.00 | 0.74 | 0.36 | 59 | 1012.7 |
| 20260506164701 | 59 | 265 | 3.5 | 13.0 | 0.00 | 0.74 | 0.36 | 61 | 1012.2 |
| 20260506162703 | 58 | 262 | 3.5 | 20.0 | 0.00 | 0.74 | 0.36 | 63 | 1012.6 |
| 20260506161703 | 58 | 23 | 3.5 | 9.6 | 0.00 | 0.74 | 0.36 | 64 | 1012.6 |
| 20260506160703 | 57 | 323 | 4.3 | 13.0 | 0.00 | 0.74 | 0.36 | 64 | 1012.4 |
| 20260506154703 | 56 | 1 | 1.7 | 13.0 | 0.00 | 0.74 | 0.36 | 65 | 1012.3 |
| 20260506153714 | 56 | 345 | 3.5 | 9.6 | 0.00 | 0.74 | 0.36 | 66 | 1012.1 |
| 20260506150702 | 54 | 42 | 2.6 | 9.6 | 0.00 | 0.74 | 0.36 | 70 | 1011.8 |
| 20260506145702 | 53 | 265 | 3.5 | 9.6 | 0.00 | 0.74 | 0.36 | 72 | 1011.9 |
| 20260506144702 | 52 | 18 | 5.2 | 11.3 | 0.00 | 0.74 | 0.36 | 73 | 1011.9 |
| 20260506143702 | 52 | 309 | 5.2 | 11.3 | 0.00 | 0.74 | 0.36 | 75 | 1011.8 |
| 20260506142703 | 51 | 312 | 5.2 | 9.6 | 0.00 | 0.74 | 0.36 | 77 | 1011.6 |
| 20260506141702 | 51 | 269 | 2.6 | 9.6 | 0.00 | 0.74 | 0.36 | 78 | 1011.7 |
| 20260506140702 | 51 | 30 | 0.0 | 11.3 | 0.00 | 0.74 | 0.36 | 80 | 1011.3 |
| 20260506133702 | 49 | 255 | 3.5 | 11.3 | 0.00 | 0.74 | 0.36 | 84 | 1010.8 |
| 20260506132702 | 49 | 338 | 2.6 | 11.3 | 0.00 | 0.74 | 0.36 | 87 | 1010.9 |
| 20260506131702 | 49 | 310 | 4.3 | 11.3 | 0.00 | 0.74 | 0.36 | 88 | 1010.8 |
| 20260506130702 | 49 | 358 | 3.5 | 9.6 | 0.00 | 0.74 | 0.36 | 90 | 1010.7 |
| 20260506125702 | 48 | 31 | 7.0 | 16.5 | 0.00 | 0.74 | 0.36 | 90 | 1010.7 |
| 20260506124701 | 48 | 338 | 0.0 | 7.8 | 0.00 | 0.74 | 0.36 | 92 | 1010.6 |
| 20260506122703 | 48 | 0 | 0.9 | 5.2 | 0.00 | 0.74 | 0.36 | 93 | 1010.0 |
| 20260506121703 | 47 | 37 | 3.5 | 9.6 | 0.00 | 0.74 | 0.36 | 93 | 1009.8 |
| 20260506120703 | 47 | 18 | 2.6 | 9.6 | 0.00 | 0.74 | 0.36 | 94 | 1009.6 |
| 20260506115703 | 47 | 49 | 2.6 | 7.8 | 0.00 | 0.74 | 0.36 | 94 | 1010.0 |
| 20260506114702 | 47 | 303 | 2.6 | 11.3 | 0.01 | 0.74 | 0.36 | 94 | 1009.6 |
| 20260506113703 | 47 | 0 | 4.3 | 13.0 | 0.01 | 0.74 | 0.36 | 94 | 1009.6 |
| 20260506112702 | 47 | 343 | 2.6 | 9.6 | 0.01 | 0.74 | 0.36 | 94 | 1009.6 |
| 20260506105702 | 47 | 37 | 2.6 | 11.3 | 0.01 | 0.73 | 0.36 | 93 | 1008.2 |
| 20260506104702 | 47 | 295 | 4.3 | 16.5 | 0.00 | 0.73 | 0.35 | 93 | 1008.3 |
| 20260506103702 | 47 | 348 | 1.7 | 7.8 | 0.00 | 0.73 | 0.35 | 93 | 1008.6 |
| 20260506102702 | 47 | 288 | 1.7 | 5.2 | 0.00 | 0.73 | 0.35 | 94 | 1008.5 |
| 20260506101702 | 47 | 320 | 1.7 | 5.2 | 0.00 | 0.73 | 0.35 | 93 | 1008.0 |
| 20260506100703 | 47 | 329 | 0.9 | 9.6 | 0.00 | 0.73 | 0.35 | 93 | 1007.9 |
| 20260506094702 | 47 | 45 | 0.0 | 7.8 | 0.01 | 0.73 | 0.35 | 93 | 1007.2 |
| 20260506092702 | 47 | 343 | 4.3 | 14.8 | 0.04 | 0.73 | 0.35 | 93 | 1007.7 |
| 20260506091701 | 47 | 6 | 5.2 | 14.8 | 0.05 | 0.73 | 0.35 | 93 | 1007.4 |
| 20260506085703 | 47 | 338 | 3.5 | 16.5 | 0.08 | 0.65 | 0.35 | 93 | 1007.2 |
| 20260506084703 | 47 | 336 | 6.1 | 16.5 | 0.09 | 0.65 | 0.34 | 93 | 1007.1 |
| 20260506083704 | 47 | 86 | 4.3 | 14.8 | 0.07 | 0.65 | 0.32 | 93 | 1007.5 |
| 20260506082702 | 47 | 11 | 3.5 | 16.5 | 0.06 | 0.65 | 0.31 | 93 | 1007.5 |
| 20260506081702 | 47 | 10 | 3.5 | 16.5 | 0.06 | 0.65 | 0.30 | 93 | 1007.2 |
| 20260506080704 | 48 | 0 | 2.6 | 14.8 | 0.05 | 0.65 | 0.28 | 94 | 1007.2 |
| 20260506072703 | 48 | 350 | 3.5 | 11.3 | 0.09 | 0.60 | 0.25 | 93 | 1006.7 |
| 20260506070702 | 49 | 3 | 2.6 | 11.3 | 0.12 | 0.60 | 0.23 | 93 | 1006.6 |
| 20260506061704 | 50 | 14 | 3.5 | 9.6 | 0.12 | 0.47 | 0.13 | 93 | 1006.8 |
| 20260506060702 | 50 | 354 | 1.7 | 13.0 | 0.11 | 0.47 | 0.11 | 93 | 1006.6 |
| 20260506050703 | 53 | 327 | 1.7 | 9.6 | 0.00 | 0.38 | 0.00 | 93 | 1007.0 |
| 20260506044702 | 55 | 24 | 1.7 | 5.2 | 0.00 | 0.38 | 0.00 | 92 | 1007.0 |
| 20260506043702 | 56 | 237 | 1.7 | 7.8 | 0.01 | 0.38 | 0.00 | 92 | 1007.0 |
| 20260506041702 | 58 | 172 | 0.0 | 0.0 | 0.05 | 0.38 | 0.00 | 94 | 1007.1 |
| 20260506040701 | 58 | 172 | 0.0 | 0.0 | 0.06 | 0.38 | 0.00 | 94 | 1007.0 |
| 20260506035702 | 58 | 172 | 0.0 | 0.0 | 0.09 | 0.30 | 0.38 | 94 | 1007.0 |
| 20260506034702 | 58 | 172 | 0.0 | 1.7 | 0.10 | 0.30 | 0.38 | 94 | 1007.2 |
| 20260506032704 | 58 | 171 | 0.0 | 0.0 | 0.10 | 0.30 | 0.36 | 94 | 1007.6 |
| 20260506031703 | 58 | 220 | 0.0 | 0.0 | 0.09 | 0.30 | 0.33 | 94 | 1007.8 |
| 20260506025703 | 59 | 193 | 0.0 | 0.0 | 0.10 | 0.19 | 0.28 | 94 | 1008.1 |
| 20260506024703 | 59 | 193 | 0.0 | 0.0 | 0.11 | 0.19 | 0.27 | 94 | 1007.9 |
| 20260506023702 | 59 | 193 | 0.0 | 0.0 | 0.12 | 0.19 | 0.27 | 94 | 1008.0 |
| 20260506022702 | 59 | 193 | 0.0 | 0.0 | 0.12 | 0.19 | 0.26 | 93 | 1008.0 |
| 20260506021704 | 59 | 193 | 0.0 | 1.7 | 0.12 | 0.19 | 0.24 | 93 | 1008.0 |
| 20260506020703 | 59 | 172 | 0.0 | 0.0 | 0.11 | 0.19 | 0.21 | 93 | 1008.1 |
| 20260506014702 | 60 | 171 | 0.0 | 0.0 | 0.07 | 0.11 | 0.16 | 93 | 1008.0 |
| 20260506013703 | 60 | 171 | 0.0 | 0.0 | 0.05 | 0.11 | 0.15 | 93 | 1007.7 |
| 20260506012702 | 60 | 172 | 0.0 | 1.7 | 0.04 | 0.11 | 0.14 | 93 | 1007.7 |
| 20260506011702 | 60 | 172 | 0.0 | 1.7 | 0.02 | 0.11 | 0.12 | 93 | 1007.5 |
| 20260506010702 | 60 | 157 | 0.0 | 0.0 | 0.01 | 0.11 | 0.11 | 93 | 1007.5 |